Regional Weather Roundup
Issued by NWS

Home | Current Version | Previous Version | Text Only | Print | Product List | Glossary Off
Versions: 1 2 3 4 5 6 7 8 9 10 11 12 13 14 15 16 17 18 19 20 21 22 23 24 25 26 27

000
ASUS45 KCYS 240610
RWRWY

WYOMING REGIONAL WEATHER ROUNDUP
NATIONAL WEATHER SERVICE CHEYENNE WY
1200 AM MDT THU APR 24 2014

NOTE:  "FAIR" INDICATES FEW OR NO CLOUDS BELOW 12,000 FEET
WITH NO SIGNIFICANT WEATHER AND/OR OBSTRUCTIONS TO VISIBILITY.

WYZ001-240700-
YELLOWSTONE NATIONAL PARK

CITY           SKY/WX    TMP DP  RH WIND       PRES   REMARKS
LK YELLOWSTONE   N/A     25  19  78 VRB3      29.99R
6HR MIN TEMP:  25; 6HR MAX TEMP:  28; 6HR PCP:  0.01;

W YELLOWSTONE  NOT AVBL

$$
WYZ002>013-054>058-071-098>099-240700-
NORTHERN WYOMING

CITY           SKY/WX    TMP DP  RH WIND       PRES   REMARKS
JACKSON        MOCLDY    36  21  55 SW10      30.02R WCI  28
CODY           CLEAR     37  21  52 SW15G22   29.87F WCI  28
GREYBULL       CLEAR     38  22  52 SE7       29.88S WCI  33
6HR MIN TEMP:  38; 6HR MAX TEMP:  57;

WORLAND        PTCLDY    35  15  44 E5        29.89R WCI  31
6HR MIN TEMP:  31; 6HR MAX TEMP:  56;

SHERIDAN         N/A     30  10  43 W12G18      N/A  WCI  21
6HR MIN TEMP:  34; 6HR MAX TEMP:  53;

BUFFALO        CLEAR     37  15  40 E6        29.86F WCI  32
6HR MIN TEMP:  34; 6HR MAX TEMP:  48;

GILLETTE       CLEAR     30  21  69 W7        29.85S WCI  23
6HR MIN TEMP:  30; 6HR MAX TEMP:  50;

HULETT         FAIR      37  21  52 SW7       29.84  WCI  32
NEWCASTLE      FAIR      37  27  65 N6        29.87  WCI  33

$$
WYZ014>020-022>026-101>103-240700-
CENTRAL WYOMING

CITY           SKY/WX    TMP DP  RH WIND       PRES   REMARKS
BIG PINEY      PTCLDY    24  14  65 SE5       30.05R WCI  18
6HR MIN TEMP:  24; 6HR MAX TEMP:  40;

PINEDALE       MOCLDY    25  21  86 CALM      30.05S
DUBOIS         FAIR      30  18  59 W33G41    29.92F WCI  14
LANDER         PTCLDY    36  14  40 SW10      29.94S WCI  28
6HR MIN TEMP:  36; 6HR MAX TEMP:  48;

RIVERTON       MOCLDY    34  14  43 NW8       29.96R WCI  27
6HR MIN TEMP:  34; 6HR MAX TEMP:  49;

CASPER         CLEAR     34  12  40 W12       29.93R WCI  25
6HR MIN TEMP:  31; 6HR MAX TEMP:  52;

DOUGLAS        PTCLDY    36  29  75 NW3       29.92S
6HR MIN TEMP:  35; 6HR MAX TEMP:  57; 6HR PCP: TRACE;


$$
WYZ021-027>030-104>119-240700-
SOUTHERN WYOMING

CITY           SKY/WX    TMP DP  RH WIND       PRES   REMARKS
EVANSTON       CLEAR     25  16  68 SW10      30.08S WCI  15
6HR MIN TEMP:  25; 6HR MAX TEMP:  40;

FORT BRIDGER   FAIR      31  18  59 SW12      30.11R WCI  22
ROCK SPRINGS   CLEAR     33  15  47 W15G25    30.06R WCI  23
6HR MIN TEMP:  32; 6HR MAX TEMP:  44;

DIXON          FAIR      29  16  58 CALM      30.09R
RAWLINS        CLEAR     33  10  38 W22G29    30.01R WCI  21
6HR MIN TEMP:  33; 6HR MAX TEMP:  45;

SARATOGA       FAIR      30  12  47 W10       30.04R WCI  21
LARAMIE        PTCLDY    30   5  34 NW18      29.97R WCI  18
6HR MIN TEMP:  28; 6HR MAX TEMP:  46;

CHEYENNE       CLOUDY    41   4  21 NW22G32   29.94R
6HR MIN TEMP:  41; 6HR MAX TEMP:  50;

TORRINGTON     CLOUDY    42  34  73 NW8       29.91R
6HR MIN TEMP:  41; 6HR MAX TEMP:  58;

PINE BLUFFS    FAIR      45  19  36 NW13      29.93R

$$



USA.gov is the U.S. government's official web portal to all federal, state and local government web resources and services.